GW3084 Weather Reports


Display with metric or nautical units.
time (UTC)temp
F
wind
direction
speed
MPH
gust
MPH
rain 1hr
in
rain 24hr
in
rain mn
in
humidity
%
barometer
mb
20260831144019 77 165 2.0 6.0 0.00 0.06 0.06 79 1011.8
20260831143034 75 138 1.0 2.0 0.00 0.06 0.06 83 1011.8
20260831142032 72 153 0.0 1.0 0.00 0.06 0.06 88 1011.8
20260831141028 71 151 1.0 2.0 0.00 0.06 0.06 90 1011.8
20260831140025 70 157 1.0 2.0 0.00 0.06 0.06 91 1011.7
20260831135042 69 166 0.0 3.0 0.00 0.06 0.06 90 1011.7
20260831134018 69 142 1.0 3.0 0.00 0.06 0.06 91 1011.8
20260831133035 70 141 1.0 3.0 0.00 0.06 0.06 90 1011.8
20260831132032 71 134 1.0 3.0 0.00 0.06 0.06 89 1011.9
20260831131028 72 133 1.0 3.0 0.00 0.06 0.06 91 1011.8
20260831130025 72 176 2.0 6.0 0.00 0.06 0.06 93 1011.8
20260831125022 71 182 2.0 7.0 0.00 0.06 0.06 95 1012.0
20260831124040 70 194 2.0 7.0 0.00 0.06 0.06 97 1011.9
20260831123057 70 201 2.0 8.0 0.00 0.06 0.06 99 1011.9
20260831122032 69 194 3.0 9.0 0.01 0.06 0.06 99 1011.9
20260831121029 68 188 3.0 7.0 0.04 0.06 0.06 99 1011.8
20260831120026 67 193 2.0 7.0 0.04 0.06 0.06 99 1011.8
20260831115022 66 194 1.0 6.0 0.04 0.06 0.06 99 1011.8
20260831114019 65 178 1.0 6.0 0.04 0.06 0.06 99 1011.9
20260831113036 65 149 1.0 4.0 0.04 0.06 0.06 98 1012.2
20260831112034 66 128 2.0 6.0 0.03 0.05 0.05 98 1012.7
20260831111052 67 139 1.0 6.0 0.00 0.02 0.02 99 1012.8
20260831110026 68 130 2.0 6.0 0.00 0.02 0.02 98 1012.7
20260831105023 69 148 1.0 4.0 0.01 0.02 0.02 98 1012.8
20260831104020 69 144 1.0 4.0 0.01 0.02 0.02 97 1012.7
20260831103017 70 149 1.0 4.0 0.01 0.02 0.02 97 1012.8
20260831102034 70 178 1.0 6.0 0.01 0.02 0.02 96 1012.5
20260831101030 71 176 2.0 4.0 0.01 0.02 0.02 95 1012.5
20260831100047 71 198 2.0 4.0 0.01 0.02 0.02 93 1012.5
20260831095023 71 187 2.0 6.0 0.00 0.01 0.01 93 1012.7
20260831094019 71 185 1.0 3.0 0.00 0.01 0.01 94 1012.8
20260831093017 70 190 1.0 4.0 0.00 0.01 0.01 94 1012.9
20260831092055 70 182 1.0 4.0 0.00 0.01 0.01 94 1013.0
20260831091029 69 178 1.0 3.0 0.00 0.01 0.01 94 1013.1
20260831090027 69 161 1.0 3.0 0.00 0.01 0.01 95 1013.2
20260831085023 69 174 1.0 6.0 0.00 0.01 0.01 95 1013.4
20260831084020 68 169 2.0 6.0 0.00 0.01 0.01 96 1013.2
20260831083035 68 156 1.0 7.0 0.00 0.01 0.01 97 1013.4
20260831082031 67 162 2.0 4.0 0.00 0.01 0.01 96 1013.5
20260831081027 68 134 1.0 2.0 0.00 0.01 0.01 95 1013.3
20260831080023 68 162 1.0 3.0 0.00 0.01 0.01 94 1013.3
20260831075039 68 142 1.0 4.0 0.00 0.01 0.01 92 1013.4
20260831074015 70 136 1.0 3.0 0.00 0.01 0.01 92 1013.2
20260831073030 70 273 0.0 1.0 0.00 0.01 0.01 92 1013.3
20260831072027 70 273 0.0 1.0 0.01 0.01 0.01 91 1013.5
20260831071020 71 134 0.0 1.0 0.01 0.01 0.01 91 1013.8
20260831070019 71 195 0.0 1.0 0.01 0.01 0.01 91 1014.0
20260831065034 71 270 0.0 1.0 0.01 0.01 0.01 91 1014.4
20260831063028 71 272 0.0 3.0 0.01 0.01 0.01 90 1014.5
20260831062024 72 265 0.0 2.0 0.00 0.00 0.00 89 1014.6
20260831061023 72 279 1.0 4.0 0.00 0.00 0.00 88 1014.6
20260831060038 72 275 1.0 4.0 0.00 0.00 0.00 88 1014.6
20260831055032 72 255 0.0 2.0 0.00 0.00 0.00 88 1014.6
20260831054026 72 251 1.0 3.0 0.00 0.00 0.00 89 1014.5
20260831053102 71 232 0.0 2.0 0.00 0.00 0.00 89 1014.5
20260831052017 71 266 0.0 2.0 0.00 0.00 0.00 88 1014.2
20260831051034 71 204 0.0 1.0 0.00 0.00 0.00 88 1013.9
20260831050032 70 151 0.0 1.0 0.00 0.00 0.00 89 1013.8
20260831045027 70 252 0.0 1.0 0.00 0.00 0.00 88 1014.1
20260831044024 70 134 0.0 1.0 0.00 0.00 0.00 88 1013.8
20260831043042 70 132 0.0 1.0 0.00 0.00 0.00 87 1014.0
20260831042019 71 139 0.0 1.0 0.00 0.00 0.00 87 1014.1
20260831041034 70 137 0.0 1.0 0.00 0.00 0.00 86 1014.3
20260831040051 71 0.0 0.0 0.00 0.00 0.00 85 1014.5
20260831035028 71 133 0.0 1.0 0.00 0.00 0.00 85 1014.3
20260831034024 72 135 0.0 1.0 0.00 0.00 0.00 85 1013.9
20260831033021 72 122 0.0 1.0 0.00 0.00 0.00 84 1014.0
20260831032018 73 122 0.0 1.0 0.00 0.00 0.00 83 1014.0
20260831031036 73 127 0.0 1.0 0.00 0.00 0.00 81 1013.9
20260831030031 74 119 0.0 1.0 0.00 0.00 0.00 82 1013.9
20260831025049 74 256 0.0 1.0 0.00 0.00 0.00 82 1014.0
20260831024025 74 263 1.0 3.0 0.00 0.00 0.00 81 1014.0
20260831023022 75 265 1.0 4.0 0.00 0.00 0.00 81 1013.8
20260831022020 75 249 2.0 9.0 0.00 0.00 0.00 80 1013.9
20260831021015 75 241 2.0 6.0 0.00 0.00 0.00 79 1013.9
20260831020034 76 250 2.0 7.0 0.00 0.00 0.00 79 1014.0
20260831015029 76 228 2.0 8.0 0.00 0.00 0.00 78 1013.9
20260831014026 76 256 2.0 6.0 0.00 0.00 0.00 77 1013.7
20260831013023 76 243 2.0 7.0 0.00 0.00 0.00 77 1013.5
20260831012019 77 254 1.0 6.0 0.00 0.00 0.00 76 1013.5
20260831011016 77 267 1.0 7.0 0.00 0.00 0.00 76 1013.5
20260831010033 77 256 1.0 4.0 0.00 0.00 0.00 75 1013.2
20260831005030 78 252 1.0 7.0 0.00 0.00 0.00 75 1013.2
20260831004027 78 255 1.0 3.0 0.00 0.00 0.00 74 1013.0
20260831003023 78 267 1.0 3.0 0.00 0.00 0.00 73 1012.8
20260831002020 79 249 1.0 6.0 0.00 0.00 0.00 73 1012.7
20260831001017 79 247 2.0 4.0 0.00 0.00 0.00 72 1012.8
20260831000054 80 244 2.0 9.0 0.00 0.00 0.00 71 1012.8
20260830235031 80 235 2.0 6.0 0.00 0.00 0.00 70 1012.8
20260830234027 81 240 3.0 8.0 0.00 0.00 0.00 69 1012.8
20260830233024 81 210 2.0 6.0 0.00 0.00 0.00 68 1012.8
20260830232021 82 230 3.0 9.0 0.00 0.00 0.00 66 1012.7
20260830231018 83 244 2.0 4.0 0.00 0.00 0.00 65 1012.6
20260830230035 83 239 2.0 7.0 0.00 0.00 0.00 64 1012.4
20260830225032 84 239 3.0 8.0 0.00 0.00 0.00 63 1012.4
20260830224048 85 204 2.0 7.0 0.00 0.00 0.00 61 1012.1
20260830223025 85 245 1.0 4.0 0.00 0.00 0.00 61 1012.0
20260830222042 85 275 3.0 8.0 0.00 0.00 0.00 60 1012.1
20260830221019 86 248 2.0 8.0 0.00 0.00 0.00 60 1012.2
20260830220016 86 265 3.0 7.0 0.00 0.00 0.00 58 1012.1
20260830215032 87 272 2.0 9.0 0.00 0.00 0.00 59 1012.0
20260830214029 87 258 2.0 7.0 0.00 0.00 0.00 59 1011.9
20260830213026 87 262 2.0 6.0 0.00 0.00 0.00 58 1011.9
20260830212143 88 267 2.0 4.0 0.00 0.00 0.00 56 1011.7
20260830211021 87 291 2.0 9.0 0.00 0.00 0.00 58 1011.7
20260830210016 86 268 3.0 10.0 0.00 0.00 0.00 59 1011.8
20260830205033 87 262 3.0 8.0 0.00 0.00 0.00 59 1011.9
20260830204030 86 277 3.0 10.0 0.00 0.00 0.00 59 1012.0
20260830203027 85 265 4.0 13.0 0.00 0.00 0.00 61 1012.1
20260830202023 85 283 3.0 9.0 0.00 0.00 0.00 62 1012.2
20260830201019 84 279 3.0 9.0 0.00 0.01 0.00 64 1012.2
20260830200038 78 267 3.0 13.0 0.00 0.01 0.00 74 1012.2
20260830195215 77 127 2.0 6.0 0.00 0.01 0.00 78 1012.3
20260830194029 77 142 3.0 7.0 0.00 0.01 0.00 78 1012.4
20260830193026 77 130 2.0 7.0 0.00 0.01 0.00 77 1012.5
20260830192022 78 133 2.0 7.0 0.00 0.02 0.00 77 1012.6
20260830191019 77 160 3.0 6.0 0.00 0.02 0.00 78 1012.4
20260830190016 78 167 2.0 8.0 0.00 0.02 0.00 76 1012.2
20260830185032 80 136 2.0 8.0 0.00 0.02 0.00 73 1012.2
20260830184029 80 192 3.0 8.0 0.00 0.03 0.00 74 1012.0
20260830183026 80 194 3.0 10.0 0.00 0.03 0.00 74 1012.1
20260830182023 79 185 5.0 13.0 0.00 0.03 0.00 75 1012.2
20260830181019 79 181 5.0 13.0 0.00 0.03 0.00 74 1012.1
20260830180016 80 177 4.0 11.0 0.00 0.04 0.00 72 1012.1
20260830175033 79 178 4.0 10.0 0.00 0.04 0.00 73 1012.2
20260830174030 79 177 4.0 10.0 0.00 0.04 0.00 73 1012.3
20260830173048 79 168 4.0 10.0 0.00 0.04 0.00 73 1012.4
20260830172024 78 177 4.0 10.0 0.00 0.04 0.00 75 1012.4
20260830171020 78 163 5.0 10.0 0.00 0.04 0.00 76 1012.5
20260830170017 77 179 4.0 11.0 0.00 0.04 0.00 76 1012.6
20260830165034 77 186 4.0 9.0 0.00 0.04 0.00 75 1012.8
20260830164030 77 168 3.0 11.0 0.00 0.04 0.00 75 1012.7
20260830163027 77 172 3.0 10.0 0.00 0.04 0.00 75 1012.9
20260830162024 77 185 3.0 8.0 0.00 0.04 0.00 75 1013.0
20260830161101 77 169 4.0 10.0 0.00 0.04 0.00 75 1013.0
20260830160018 77 172 4.0 11.0 0.00 0.04 0.00 76 1012.9
20260830155034 76 161 4.0 9.0 0.00 0.04 0.00 76 1013.0
20260830154032 77 171 3.0 10.0 0.00 0.04 0.00 75 1013.2
20260830153028 77 169 4.0 10.0 0.00 0.04 0.00 75 1013.3
20260830152027 76 191 4.0 10.0 0.00 0.04 0.00 78 1013.3
20260830151023 76 191 4.0 10.0 0.00 0.04 0.00 76 1013.4
20260830150039 78 181 4.0 10.0 0.00 0.04 0.00 72 1013.2
20260830145036 78 177 4.0 13.0 0.00 0.04 0.00 72 1013.1